N256VM SCVM-SCEL

Flight info

Callsign N256VM
Flight time 0h 26m
Altitude 8000
Route VM020 DCT OLMUE DCT EL222 DCT TEMUS
Aircraft SR22/L-SDGRY/S

Departure

Time 2026-04-23 12:30
Airport Viña del Mar Airport (SCVM)

Arrival

Time 2026-04-23 12:56
Airport Comodoro Arturo Merino Benítez International Airport (SCEL)
Time Latitude Longitude Altitude Speed Heading
2026-04-23 12:11 -32.95540 -71.48361 461 ft 0 kts 40°
2026-04-23 12:26 -32.95490 -71.48430 461 ft 16 kts 279°
2026-04-23 12:26 -32.95487 -71.48532 460 ft 20 kts 281°
2026-04-23 12:26 -32.95405 -71.48548 459 ft 3 kts 49°
2026-04-23 12:29 -32.95313 -71.48412 459 ft 44 kts 51°
2026-04-23 12:29 -32.95033 -71.47985 458 ft 84 kts 52°
2026-04-23 12:30 -32.94599 -71.47321 527 ft 113 kts 51°
2026-04-23 12:30 -32.94104 -71.46592 810 ft 116 kts 51°
2026-04-23 12:30 -32.93584 -71.45858 1203 ft 116 kts 51°
2026-04-23 12:30 -32.93066 -71.45126 1636 ft 116 kts 51°
2026-04-23 12:31 -32.92528 -71.44388 2026 ft 118 kts 51°
2026-04-23 12:31 -32.92047 -71.43607 2425 ft 117 kts 82°
2026-04-23 12:31 -32.92194 -71.42677 2839 ft 115 kts 95°
2026-04-23 12:31 -32.91944 -71.41777 3257 ft 116 kts 88°
2026-04-23 12:32 -32.92250 -71.40788 3219 ft 144 kts 127°
2026-04-23 12:32 -32.92467 -71.39638 3260 ft 164 kts 77°
2026-04-23 12:32 -32.91596 -71.38558 2648 ft 205 kts 24°
2026-04-23 12:32 -32.90384 -71.37930 3019 ft 165 kts 65°
2026-04-23 12:33 -32.90921 -71.36904 2987 ft 166 kts 146°
2026-04-23 12:33 -32.91229 -71.35597 2875 ft 180 kts 90°
2026-04-23 12:33 -32.91171 -71.34268 3560 ft 142 kts 88°
2026-04-23 12:33 -32.91093 -71.33219 4219 ft 117 kts 88°
2026-04-23 12:34 -32.91024 -71.32283 4688 ft 112 kts 88°
2026-04-23 12:34 -32.90963 -71.31360 5052 ft 116 kts 88°
2026-04-23 12:34 -32.90899 -71.30382 5402 ft 120 kts 86°
2026-04-23 12:34 -32.90797 -71.29403 5794 ft 121 kts 72°
2026-04-23 12:35 -32.90423 -71.28496 6178 ft 122 kts 63°
2026-04-23 12:35 -32.90072 -71.27573 6553 ft 123 kts 77°
2026-04-23 12:35 -32.90050 -71.26550 6917 ft 124 kts 90°
2026-04-23 12:35 -32.90045 -71.25524 7290 ft 124 kts 85°
2026-04-23 12:36 -32.89957 -71.24500 7664 ft 125 kts 82°
2026-04-23 12:36 -32.89860 -71.23466 8051 ft 126 kts 81°
2026-04-23 12:36 -32.89763 -71.22433 8439 ft 126 kts 81°
2026-04-23 12:36 -32.89662 -71.21388 8837 ft 127 kts 81°
2026-04-23 12:37 -32.89561 -71.20356 9236 ft 128 kts 81°
2026-04-23 12:37 -32.89407 -71.19312 9642 ft 128 kts 76°
2026-04-23 12:37 -32.89235 -71.18269 10049 ft 130 kts 76°
2026-04-23 12:37 -32.89036 -71.17079 10001 ft 162 kts 76°
2026-04-23 12:38 -32.88726 -71.15711 9967 ft 177 kts 73°
2026-04-23 12:38 -32.88463 -71.14246 9969 ft 185 kts 78°
2026-04-23 12:38 -32.88299 -71.12701 9966 ft 192 kts 83°
2026-04-23 12:38 -32.88143 -71.11125 9962 ft 195 kts 79°
2026-04-23 12:39 -32.87894 -71.09533 9956 ft 196 kts 77°
2026-04-23 12:39 -32.87631 -71.07946 9957 ft 195 kts 76°
2026-04-23 12:39 -32.87392 -71.06362 9961 ft 195 kts 79°
2026-04-23 12:39 -32.87203 -71.04758 9955 ft 198 kts 80°
2026-04-23 12:40 -32.87024 -71.03129 9956 ft 199 kts 80°
2026-04-23 12:40 -32.86981 -71.01481 9942 ft 201 kts 99°
2026-04-23 12:40 -32.87676 -71.00061 9943 ft 203 kts 132°
2026-04-23 12:40 -32.88730 -70.98926 9947 ft 203 kts 137°
2026-04-23 12:41 -32.89765 -70.97785 9946 ft 204 kts 135°
2026-04-23 12:41 -32.90762 -70.96588 9949 ft 203 kts 132°
2026-04-23 12:41 -32.91739 -70.95364 9953 ft 204 kts 132°
2026-04-23 12:41 -32.92714 -70.94128 9955 ft 205 kts 131°
2026-04-23 12:42 -32.93659 -70.92920 9948 ft 187 kts 131°
2026-04-23 12:42 -32.94468 -70.91851 9939 ft 166 kts 130°
2026-04-23 12:42 -32.95211 -70.90863 9937 ft 150 kts 130°
2026-04-23 12:42 -32.95870 -70.89996 9937 ft 137 kts 130°
2026-04-23 12:43 -32.96490 -70.89183 9933 ft 127 kts 130°
2026-04-23 12:43 -32.97063 -70.88441 9931 ft 117 kts 130°
2026-04-23 12:43 -32.97593 -70.87760 9897 ft 109 kts 130°
2026-04-23 12:43 -32.98097 -70.87128 9962 ft 109 kts 130°
2026-04-23 12:44 -32.98695 -70.86364 10043 ft 142 kts 130°
2026-04-23 12:44 -32.99416 -70.85430 10136 ft 162 kts 130°
2026-04-23 12:44 -33.00207 -70.84400 10228 ft 175 kts 130°
2026-04-23 12:44 -33.01042 -70.83308 10282 ft 185 kts 130°
2026-04-23 12:45 -33.01999 -70.82220 10303 ft 189 kts 146°
2026-04-23 12:45 -33.03235 -70.81802 10318 ft 184 kts 177°
2026-04-23 12:45 -33.04506 -70.81754 10320 ft 182 kts 180°
2026-04-23 12:45 -33.05772 -70.81722 10322 ft 181 kts 180°
2026-04-23 12:46 -33.06991 -70.81686 10319 ft 169 kts 180°
2026-04-23 12:46 -33.08092 -70.81643 10291 ft 149 kts 179°
2026-04-23 12:46 -33.09074 -70.81598 10249 ft 135 kts 179°
2026-04-23 12:46 -33.09980 -70.81555 10204 ft 127 kts 179°
2026-04-23 12:47 -33.10847 -70.81514 10179 ft 123 kts 179°
2026-04-23 12:47 -33.11695 -70.81472 10136 ft 121 kts 179°
2026-04-23 12:47 -33.12544 -70.81432 10020 ft 127 kts 179°
2026-04-23 12:47 -33.13513 -70.81392 9599 ft 152 kts 179°
2026-04-23 12:48 -33.14606 -70.81355 9335 ft 157 kts 179°
2026-04-23 12:48 -33.15641 -70.81319 9327 ft 144 kts 179°
2026-04-23 12:48 -33.16637 -70.81283 9164 ft 146 kts 179°
2026-04-23 12:48 -33.17703 -70.81251 8738 ft 163 kts 179°
2026-04-23 12:49 -33.18872 -70.81220 8341 ft 172 kts 179°
2026-04-23 12:49 -33.20095 -70.81195 7929 ft 178 kts 180°
2026-04-23 12:49 -33.21341 -70.81176 7516 ft 180 kts 180°
2026-04-23 12:49 -33.22600 -70.81160 7100 ft 178 kts 180°
2026-04-23 12:50 -33.23830 -70.81144 6681 ft 175 kts 179°
2026-04-23 12:50 -33.25041 -70.81128 6190 ft 175 kts 179°
2026-04-23 12:50 -33.26271 -70.81116 5633 ft 177 kts 180°
2026-04-23 12:50 -33.27445 -70.81416 5065 ft 177 kts 224°
2026-04-23 12:51 -33.27850 -70.82760 4509 ft 175 kts 266°
2026-04-23 12:51 -33.27395 -70.83953 3973 ft 172 kts 346°
2026-04-23 12:51 -33.26427 -70.83587 4009 ft 138 kts 51°
2026-04-23 12:51 -33.26574 -70.82780 3783 ft 130 kts 172°
2026-04-23 12:52 -33.27543 -70.82666 2769 ft 162 kts 180°
2026-04-23 12:52 -33.28639 -70.82676 2352 ft 137 kts 175°
2026-04-23 12:52 -33.29428 -70.82523 2362 ft 103 kts 162°
2026-04-23 12:52 -33.30039 -70.82175 2182 ft 95 kts 175°
2026-04-23 12:53 -33.30647 -70.81950 2036 ft 91 kts 141°
2026-04-23 12:53 -33.31131 -70.81545 2054 ft 84 kts 149°
2026-04-23 12:53 -33.31659 -70.81232 2055 ft 85 kts 158°
2026-04-23 12:53 -33.32210 -70.81007 2056 ft 84 kts 164°
2026-04-23 12:54 -33.32783 -70.80845 2055 ft 85 kts 168°
2026-04-23 12:54 -33.33361 -70.80724 2055 ft 85 kts 172°
2026-04-23 12:54 -33.33950 -70.80636 2055 ft 85 kts 174°
2026-04-23 12:54 -33.34543 -70.80571 2055 ft 85 kts 175°
2026-04-23 12:55 -33.35156 -70.80521 1964 ft 91 kts 175°
2026-04-23 12:55 -33.35774 -70.80432 1855 ft 90 kts 174°
2026-04-23 12:55 -33.36402 -70.80382 1797 ft 88 kts 178°
2026-04-23 12:55 -33.37033 -70.80363 1706 ft 97 kts 181°
2026-04-23 12:56 -33.37707 -70.80353 1581 ft 92 kts 177°
2026-04-23 12:56 -33.38294 -70.80317 1555 ft 76 kts 177°
2026-04-23 12:56 -33.38773 -70.80290 1556 ft 61 kts 175°
2026-04-23 12:56 -33.39118 -70.80268 1555 ft 26 kts 169°
2026-04-23 12:57 -33.39295 -70.80217 1554 ft 26 kts 157°
2026-04-23 12:57 -33.39423 -70.80126 1554 ft 0 kts 147°
2026-04-23 12:57 -33.39436 -70.80115 1554 ft 6 kts 143°
2026-04-23 12:57 -33.39489 -70.80068 1554 ft 13 kts 146°
2026-04-23 12:58 -33.39533 -70.79961 1554 ft 17 kts 88°
2026-04-23 12:58 -33.39529 -70.79805 1555 ft 20 kts 89°
2026-04-23 12:58 -33.39522 -70.79629 1555 ft 22 kts 78°
2026-04-23 12:58 -33.39424 -70.79533 1555 ft 20 kts 79°
2026-04-23 12:59 -33.39410 -70.79357 1556 ft 22 kts 83°
2026-04-23 12:59 -33.39405 -70.79170 1557 ft 23 kts 70°
2026-04-23 12:59 -33.39313 -70.79048 1557 ft 22 kts 86°
2026-04-23 12:59 -33.39261 -70.78904 1557 ft 21 kts
2026-04-23 13:00 -33.39110 -70.78914 1557 ft 23 kts 357°
2026-04-23 13:00 -33.38947 -70.78919 1556 ft 24 kts 358°
2026-04-23 13:00 -33.38780 -70.78930 1566 ft 24 kts 355°
2026-04-23 13:00 -33.38608 -70.78944 1567 ft 25 kts 356°
2026-04-23 13:01 -33.38438 -70.78950 1567 ft 25 kts 359°
2026-04-23 13:01 -33.38267 -70.78962 1567 ft 24 kts 348°
2026-04-23 13:01 -33.38121 -70.79062 1565 ft 25 kts 321°
2026-04-23 13:01 -33.38089 -70.79131 1566 ft 9 kts 206°
2026-04-23 13:02 -33.38104 -70.79127 1563 ft 0 kts 128°